TimeEST,TemperatureF,Dew PointF,Humidity,Sea Level PressureIn,VisibilityMPH,Wind Direction,Wind SpeedMPH,Gust SpeedMPH,PrecipitationIn,Events,Conditions,WindDirDegrees,DateUTC
12:15 AM,-13.0,-18.4,77,30.22,7.0,WSW,11.5,-,N/A,,Mostly Cloudy,250,2014-01-07 05:15:00
12:35 AM,-13.0,-18.4,77,30.22,10.0,WSW,12.7,20.7,N/A,,Clear,250,2014-01-07 05:35:00
12:55 AM,-13.0,-18.4,77,30.22,5.0,WSW,13.8,18.4,N/A,,Haze,250,2014-01-07 05:55:00
1:15 AM,-13.0,-18.4,77,30.22,10.0,WSW,11.5,-,N/A,,Clear,250,2014-01-07 06:15:00
1:35 AM,-13.0,-18.4,77,30.22,7.0,WSW,11.5,-,N/A,Snow,Light Snow,250,2014-01-07 06:35:00
1:55 AM,-11.2,-18.4,70,30.22,7.0,WSW,12.7,17.3,N/A,,Clear,240,2014-01-07 06:55:00
2:15 AM,-11.2,-16.6,77,30.22,4.0,WSW,12.7,-,N/A,,Haze,240,2014-01-07 07:15:00
2:35 AM,-11.2,-16.6,77,30.23,4.0,WSW,10.4,16.1,N/A,,Haze,250,2014-01-07 07:35:00
2:55 AM,-11.2,-16.6,77,30.22,7.0,WSW,11.5,-,N/A,,Scattered Clouds,250,2014-01-07 07:55:00
3:15 AM,-11.2,-16.6,77,30.23,5.0,WSW,10.4,-,N/A,,Haze,240,2014-01-07 08:15:00
3:35 AM,-11.2,-16.6,77,30.23,10.0,WSW,11.5,16.1,N/A,,Scattered Clouds,250,2014-01-07 08:35:00
3:55 AM,-11.2,-16.6,77,30.23,10.0,WSW,12.7,17.3,N/A,,Clear,250,2014-01-07 08:55:00
4:15 AM,-11.2,-16.6,77,30.23,10.0,WSW,10.4,16.1,N/A,,Clear,240,2014-01-07 09:15:00
4:35 AM,-11.2,-16.6,77,30.24,10.0,WSW,8.1,-,N/A,,Clear,240,2014-01-07 09:35:00
4:55 AM,-11.2,-16.6,77,30.24,10.0,WSW,12.7,16.1,N/A,,Clear,240,2014-01-07 09:55:00
5:15 AM,-11.2,-16.6,77,30.24,10.0,WSW,9.2,-,N/A,,Clear,240,2014-01-07 10:15:00
5:35 AM,-11.2,-16.6,77,30.24,10.0,WSW,11.5,16.1,N/A,,Clear,240,2014-01-07 10:35:00
5:55 AM,-11.2,-16.6,77,30.24,10.0,WSW,12.7,20.7,N/A,,Clear,250,2014-01-07 10:55:00
6:15 AM,-11.2,-16.6,77,30.24,10.0,WSW,13.8,19.6,N/A,,Clear,250,2014-01-07 11:15:00
6:35 AM,-11.2,-16.6,77,30.25,10.0,WSW,13.8,18.4,N/A,,Clear,250,2014-01-07 11:35:00
6:55 AM,-11.2,-16.6,77,30.25,10.0,WSW,13.8,18.4,N/A,,Clear,240,2014-01-07 11:55:00
7:15 AM,-11.2,-16.6,77,30.25,10.0,WSW,13.8,18.4,N/A,,Clear,250,2014-01-07 12:15:00
7:35 AM,-11.2,-16.6,77,30.26,10.0,WSW,12.7,17.3,N/A,,Clear,240,2014-01-07 12:35:00
7:55 AM,-11.2,-16.6,77,30.26,10.0,SW,10.4,-,N/A,,Clear,230,2014-01-07 12:55:00
8:15 AM,-11.2,-16.6,77,30.27,10.0,WSW,9.2,-,N/A,,Clear,240,2014-01-07 13:15:00
8:35 AM,-11.2,-16.6,77,30.27,10.0,SW,11.5,-,N/A,,Clear,230,2014-01-07 13:35:00
8:55 AM,-9.4,-16.6,71,30.28,10.0,WSW,11.5,-,N/A,,Clear,240,2014-01-07 13:55:00
9:15 AM,-9.4,-16.6,71,30.30,10.0,SW,12.7,20.7,N/A,,Clear,230,2014-01-07 14:15:00
9:35 AM,-7.6,-16.6,65,30.30,10.0,WSW,13.8,19.6,N/A,,Clear,240,2014-01-07 14:35:00
9:55 AM,-7.6,-14.8,71,30.31,10.0,WSW,16.1,23.0,N/A,,Clear,240,2014-01-07 14:55:00
10:15 AM,-5.8,-14.8,65,30.32,10.0,WSW,15.0,18.4,N/A,,Clear,240,2014-01-07 15:15:00
10:35 AM,-5.8,-14.8,65,30.33,7.0,WSW,16.1,24.2,N/A,,Clear,240,2014-01-07 15:35:00
10:55 AM,-5.8,-14.8,65,30.33,10.0,WSW,11.5,-,N/A,,Clear,240,2014-01-07 15:55:00
11:15 AM,-4.0,-13.0,65,30.31,10.0,WSW,11.5,-,N/A,,Clear,240,2014-01-07 16:15:00
11:35 AM,-4.0,-14.8,60,30.31,10.0,WSW,15.0,-,N/A,,Clear,240,2014-01-07 16:35:00
11:55 AM,-4.0,-13.0,65,30.31,10.0,WSW,10.4,17.3,N/A,,Clear,240,2014-01-07 16:55:00
12:15 PM,-4.0,-13.0,65,30.30,10.0,WSW,13.8,19.6,N/A,,Clear,240,2014-01-07 17:15:00
12:35 PM,-4.0,-13.0,65,30.29,10.0,WSW,13.8,18.4,N/A,,Clear,240,2014-01-07 17:35:00
12:55 PM,-2.2,-13.0,60,30.28,10.0,WSW,13.8,19.6,N/A,,Clear,240,2014-01-07 17:55:00
1:15 PM,-2.2,-13.0,60,30.28,10.0,SW,10.4,16.1,N/A,,Clear,220,2014-01-07 18:15:00
1:35 PM,-0.4,-9.4,66,30.27,10.0,SW,9.2,-,N/A,,Scattered Clouds,230,2014-01-07 18:35:00
1:55 PM,-0.4,-11.2,60,30.28,10.0,SW,11.5,19.6,N/A,,Mostly Cloudy,230,2014-01-07 18:55:00
2:15 PM,-0.4,-9.4,66,30.28,10.0,WSW,15.0,20.7,N/A,,Mostly Cloudy,240,2014-01-07 19:15:00
2:35 PM,-0.4,-9.4,66,30.29,10.0,WSW,13.8,20.7,N/A,,Scattered Clouds,240,2014-01-07 19:35:00
2:55 PM,-0.4,-9.4,66,30.29,10.0,WSW,11.5,20.7,N/A,,Clear,240,2014-01-07 19:55:00
3:15 PM,1.4,-9.4,61,30.29,10.0,WSW,12.7,20.7,N/A,,Clear,240,2014-01-07 20:15:00
3:35 PM,1.4,-7.6,66,30.29,10.0,WSW,10.4,18.4,N/A,,Clear,240,2014-01-07 20:35:00
3:55 PM,1.4,-7.6,66,30.28,10.0,WSW,10.4,18.4,N/A,,Clear,240,2014-01-07 20:55:00
4:15 PM,1.4,-7.6,66,30.29,10.0,SW,8.1,-,N/A,,Clear,220,2014-01-07 21:15:00
4:35 PM,1.4,-7.6,66,30.28,10.0,SW,5.8,-,N/A,,Scattered Clouds,220,2014-01-07 21:35:00
4:55 PM,1.4,-7.6,66,30.28,10.0,SW,6.9,-,N/A,,Overcast,230,2014-01-07 21:55:00
5:15 PM,1.4,-7.6,66,30.27,10.0,SW,6.9,-,N/A,,Overcast,230,2014-01-07 22:15:00
5:35 PM,1.4,-7.6,66,30.28,10.0,SW,4.6,-,N/A,,Overcast,220,2014-01-07 22:35:00
5:55 PM,1.4,-7.6,66,30.28,10.0,SSW,4.6,-,N/A,,Overcast,210,2014-01-07 22:55:00
6:15 PM,1.4,-7.6,66,30.29,10.0,SSW,4.6,-,N/A,,Mostly Cloudy,200,2014-01-07 23:15:00
6:35 PM,1.4,-7.6,66,30.29,10.0,SSW,3.5,-,N/A,,Scattered Clouds,210,2014-01-07 23:35:00
6:55 PM,1.4,-5.8,72,30.29,10.0,SSW,3.5,-,N/A,,Clear,200,2014-01-07 23:55:00
7:15 PM,1.4,-5.8,72,30.29,10.0,Calm,Calm,-,N/A,,Clear,0,2014-01-08 00:15:00
7:35 PM,1.4,-5.8,72,30.30,10.0,SSW,3.5,-,N/A,,Clear,210,2014-01-08 00:35:00
7:55 PM,1.4,-5.8,72,30.30,10.0,SSW,3.5,-,N/A,,Clear,210,2014-01-08 00:55:00
8:15 PM,3.2,-4.0,72,30.30,10.0,SSW,4.6,-,N/A,,Clear,210,2014-01-08 01:15:00
8:35 PM,3.2,-4.0,72,30.32,10.0,SSW,5.8,-,N/A,,Clear,210,2014-01-08 01:35:00
8:55 PM,3.2,-4.0,72,30.32,10.0,SSW,5.8,-,N/A,,Scattered Clouds,210,2014-01-08 01:55:00
9:15 PM,5.0,-2.2,72,30.32,10.0,SSW,5.8,-,N/A,,Overcast,210,2014-01-08 02:15:00
9:35 PM,5.0,-0.4,78,30.31,10.0,SSW,4.6,-,N/A,,Overcast,200,2014-01-08 02:35:00
9:55 PM,5.0,-0.4,78,30.31,10.0,SSW,4.6,-,N/A,,Overcast,200,2014-01-08 02:55:00
10:15 PM,6.8,-0.4,72,30.32,10.0,SSW,3.5,-,N/A,,Overcast,200,2014-01-08 03:15:00
10:35 PM,6.8,-0.4,72,30.33,10.0,SSW,3.5,-,N/A,,Overcast,200,2014-01-08 03:35:00
10:55 PM,6.8,-0.4,72,30.33,10.0,South,4.6,-,N/A,,Overcast,190,2014-01-08 03:55:00
11:15 PM,8.6,1.4,73,30.33,10.0,South,3.5,-,N/A,,Overcast,190,2014-01-08 04:15:00
11:35 PM,8.6,-0.4,67,30.32,10.0,South,4.6,-,N/A,,Overcast,190,2014-01-08 04:35:00
11:55 PM,8.6,1.4,73,30.31,10.0,South,3.5,-,N/A,,Overcast,190,2014-01-08 04:55:00